[[{"header":{"parameterUnit":"m.s-1","parameterCategory":1,"la1":30.2991,"la2":30.254,"lo1":-89.0895,"lo2":-89.0444,"dy":0.0017,"dx":0.0017,"nx":28,"ny":28,"refTime":"2026-01-01T03:00:00:Z","depth":0,"parameterNumber":2,"parameterNumberName":"U-component_of_WINDS"},"data":[0,0,0,0,0,0,0,0,0,0,0,0,0,0,0,0,0,0,0,0,0,0,0,0,0,0,0,0,0,0,0,0,0,0,0,0,0,0,0,0,0,0,0,0,0,0,0,0,0,0,0,0,0,0,0,0,0,0,4.4034,4.4036,0,4.4266,4.4269,4.4271,4.4251,4.4248,4.4244,4.4241,4.4481,4.449,4.45,0,0,0,0,0,0,0,0,0,0,0,0,0,4.3575,4.3583,4.4034,4.4037,4.404,4.4266,4.4269,4.4272,4.4252,4.4248,4.4243,4.4239,4.4478,4.4489,4.4501,0,0,0,0,0,0,0,0,0,0,0,0,0,4.3787,4.3586,4.4033,4.4057,4.4061,4.4265,4.4269,4.4273,4.4253,4.4248,4.4242,4.4237,4.4474,4.4488,4.4503,4.4699,0,0,4.4547,4.4553,0,0,0,0,0,0,0,0,4.3775,4.3804,4.405,4.4056,4.4061,4.4224,4.4195,4.4416,4.4254,4.418,4.4241,4.4235,4.44,4.442,4.4476,4.471,4.472,4.4548,4.4557,4.4563,4.4567,0,0,0,0,0,0,0,4.376,4.3794,4.4126,4.4054,4.406,4.4056,4.4081,4.4237,4.4317,4.4186,4.4185,4.4213,4.4402,4.4462,4.4481,4.4724,4.4548,4.4561,4.457,4.4575,4.5131,4.5136,0,0,0,0,0,0,4.374,4.3782,4.4118,4.4133,4.3902,4.4069,4.4096,4.4177,4.4315,4.4331,4.4217,4.4211,4.4439,4.4464,4.449,4.4728,4.4563,4.4577,4.4585,4.5125,4.5132,4.5138,0,0,0,0,0,0,4.373,4.377,4.4109,4.3957,4.4,4.4082,4.4174,4.4185,4.4244,4.4339,4.4353,4.4264,4.4436,4.4469,4.4647,4.4736,4.4583,4.4597,4.5117,4.5127,4.5135,4.5206,0,0,0,0,0,0,4.3717,4.3767,4.3842,4.3959,4.4008,4.4262,4.4179,4.4193,4.4269,4.4263,4.4386,4.4401,4.4435,4.4625,4.4661,4.4753,4.4608,4.511,4.5122,4.5132,4.5196,4.5217,4.5234,0,0,0,0,0,4.3701,4.3853,4.3846,4.3886,4.4104,4.4267,4.4295,4.433,4.4277,4.4353,4.4413,4.4397,4.472,4.4643,4.4684,4.4782,4.5104,4.5118,4.5131,4.5188,4.5213,4.5234,0,0,0,0,0,0,4.3745,4.3869,4.3862,4.4057,4.4152,4.4263,4.4361,4.4355,4.4467,4.4457,4.4496,4.4524,4.4703,4.476,4.4672,4.4979,4.4905,4.4928,4.4935,4.4959,4.4977,4.496,4.462,0,0,0,0,0,4.3778,4.3899,4.4001,4.4163,4.4211,4.4278,4.435,4.4369,4.4469,4.4509,4.4582,4.4681,4.4804,4.4885,4.5004,4.5205,4.5231,4.5292,4.5311,4.5326,4.5345,4.5455,4.5483,4.5183,4.5183,4.5182,0,0,4.3846,4.3929,4.4003,4.4174,4.425,4.4376,4.4312,4.4448,4.4541,4.453,4.4701,4.4759,4.4871,4.5061,4.5149,4.5114,4.5433,4.5343,4.5354,4.5365,4.5471,4.55,4.5525,4.5192,4.519,4.5189,0,0,4.4034,4.4109,4.4252,4.4329,4.4444,4.4487,4.4521,4.4635,4.4672,4.4845,4.4839,4.4951,4.5163,4.5243,4.5312,4.553,4.552,4.5568,4.5666,4.5773,4.5797,4.5818,4.5896,4.5923,4.5587,4.5587,4.5587,0,4.4105,4.4293,4.4327,4.4464,4.4539,4.4534,4.4679,4.4752,4.49,4.4953,4.4912,4.5178,4.5253,4.5461,4.5514,4.557,4.5611,4.5554,4.5791,4.5812,4.5833,4.5907,4.5936,4.5592,4.5591,4.5591,4.559,0,4.4374,4.4505,4.4607,4.4749,4.4836,4.4977,4.5031,4.5116,4.5127,4.5174,4.535,4.544,4.5577,4.5628,4.5641,4.5839,4.5814,4.5782,4.5709,4.5866,4.5936,4.5965,4.5599,4.5597,4.5596,4.5595,0,0,4.4597,4.4756,4.4792,4.4857,4.4983,4.5085,4.5225,4.5358,4.5429,4.5532,4.5651,4.583,4.5801,4.5879,4.59,4.5994,4.6161,4.5951,4.5954,4.5986,4.6384,4.6407,4.6439,4.6155,4.616,4.6165,4.6374,0,4.4798,4.5046,4.5079,4.5299,4.542,4.5416,4.5539,4.5629,4.5678,4.5788,4.5842,4.5968,4.5921,4.5967,4.606,4.6121,4.6241,4.6106,4.6265,4.6271,4.6237,4.6476,4.6501,4.6694,4.6402,4.6407,4.641,0,4.5065,4.5174,4.5405,4.5514,4.5566,4.5675,4.5799,4.5905,4.6008,4.6037,4.6123,4.6133,4.6278,4.62,4.6401,4.6308,4.6376,4.6415,4.6424,4.6439,4.6349,4.6498,4.6757,4.6785,4.6454,4.6451,4.6447,0,4.5204,4.5408,4.5573,4.5628,4.5759,4.5836,4.5895,4.5992,4.607,4.6179,4.623,4.6355,4.6423,4.652,4.6563,4.6502,4.6761,4.6686,4.6789,4.6788,4.6844,4.684,4.7117,4.6888,4.6888,4.6887,4.6887,0,4.5425,4.5566,4.5637,4.5738,4.5896,4.5934,4.609,4.6146,4.6233,4.6345,4.635,4.6455,4.6506,4.6619,4.6654,4.6815,4.6846,4.6874,4.6881,4.6873,4.6869,4.6917,4.6905,4.6895,4.6893,4.6892,4.689,0,4.5606,4.5659,4.5838,4.5948,4.5978,4.609,4.6184,4.6282,4.6329,4.6471,4.6507,4.6581,4.6715,4.6768,4.6931,4.6955,4.714,4.7137,4.7105,4.7107,4.7207,4.7196,4.7523,4.7568,4.7311,4.7313,4.7315,0,4.5743,4.5851,4.5972,4.6047,4.6108,4.6229,4.6308,4.6349,4.6431,4.6556,4.664,4.6773,4.6881,4.7095,4.7164,4.7289,4.7289,4.7395,4.7308,4.7296,4.729,4.7282,4.7293,4.7411,4.7413,4.7416,4.7417,0,4.598,4.6001,4.6114,4.6237,4.633,4.6429,4.6525,4.6587,4.6643,4.6735,4.6871,4.6955,4.7121,4.7253,4.7382,4.7443,4.744,4.7444,4.7475,4.7467,4.7443,4.7457,4.7148,4.7436,4.7435,4.7433,4.7432,4.7431,4.6143,4.6239,4.6339,4.6465,4.6541,4.6631,4.6728,4.6787,4.6901,4.7039,4.7056,4.7202,4.7302,4.7475,4.7541,4.7656,4.7628,4.7672,4.7683,4.7693,4.77,4.7425,4.768,4.7679,4.7679,4.7678,4.7678,0,4.638,4.6444,4.6559,4.6693,4.6792,4.6779,4.6885,4.6969,4.7096,4.719,4.7296,4.7452,4.758,4.7659,4.7788,4.7864,4.7866,4.7897,4.7891,4.7905,4.7718,4.7678,4.7893,4.7893,4.7893,4.7893,4.7893,4.7893,4.6515,4.6676,4.6708,4.6908,4.6971,4.7113,4.7174,4.7257,4.7331,4.7505,4.7611,4.7661,4.7749,4.7884,4.8,4.802,4.8067,4.81,4.8118,4.7941,4.7918,4.7897,4.786,4.811,4.811,4.8295,4.8297,4.8298]},{"header":{"parameterUnit":"m.s-1","parameterCategory":1,"la1":30.2991,"la2":30.254,"lo1":-89.0895,"lo2":-89.0444,"dy":0.0017,"dx":0.0017,"nx":28,"ny":28,"refTime":"2026-01-01T03:00:00:Z","depth":0,"parameterNumber":3,"parameterNumberName":"V-component_of_WINDS"},"data":[0,0,0,0,0,0,0,0,0,0,0,0,0,0,0,0,0,0,0,0,0,0,0,0,0,0,0,0,0,0,0,0,0,0,0,0,0,0,0,0,0,0,0,0,0,0,0,0,0,0,0,0,0,0,0,0,0,0,-0.7792,-0.7793,0,-0.7877,-0.7878,-0.7879,-0.7907,-0.7907,-0.7906,-0.7906,-0.7993,-0.7995,-0.7998,0,0,0,0,0,0,0,0,0,0,0,0,0,-0.7657,-0.7659,-0.7792,-0.7793,-0.7794,-0.7877,-0.7878,-0.7879,-0.7907,-0.7907,-0.7906,-0.7906,-0.7992,-0.7995,-0.7998,0,0,0,0,0,0,0,0,0,0,0,0,0,-0.7726,-0.766,-0.7792,-0.7818,-0.7821,-0.7876,-0.7878,-0.7879,-0.7907,-0.7907,-0.7906,-0.7906,-0.7991,-0.7995,-0.7999,-0.8034,0,0,-0.8011,-0.8013,0,0,0,0,0,0,0,0,-0.7722,-0.7731,-0.7813,-0.7816,-0.782,-0.7881,-0.7862,-0.7931,-0.7907,-0.7875,-0.7906,-0.7905,-0.7956,-0.7963,-0.798,-0.8038,-0.8041,-0.8011,-0.8014,-0.8015,-0.8016,0,0,0,0,0,0,0,-0.7717,-0.7727,-0.7826,-0.7814,-0.7819,-0.7826,-0.7836,-0.7875,-0.7917,-0.7877,-0.788,-0.7889,-0.7958,-0.7976,-0.7982,-0.8043,-0.8011,-0.8015,-0.8017,-0.8019,-0.8136,-0.8136,0,0,0,0,0,0,-0.7708,-0.7723,-0.7823,-0.7828,-0.7769,-0.7829,-0.784,-0.7862,-0.7917,-0.7925,-0.789,-0.789,-0.7969,-0.7977,-0.7985,-0.8031,-0.8015,-0.8019,-0.8021,-0.8135,-0.8136,-0.8137,0,0,0,0,0,0,-0.7705,-0.7716,-0.7819,-0.7776,-0.779,-0.7832,-0.7857,-0.7864,-0.7882,-0.7926,-0.7934,-0.79,-0.7969,-0.798,-0.8022,-0.8034,-0.8021,-0.8024,-0.8134,-0.8135,-0.8136,-0.8121,0,0,0,0,0,0,-0.7701,-0.7715,-0.7728,-0.7776,-0.7792,-0.7854,-0.7858,-0.7866,-0.7889,-0.789,-0.7938,-0.7946,-0.797,-0.8016,-0.8026,-0.8039,-0.8027,-0.8133,-0.8135,-0.8136,-0.8121,-0.8122,-0.8123,0,0,0,0,0,-0.7696,-0.772,-0.7729,-0.7741,-0.7809,-0.7855,-0.7864,-0.7891,-0.7889,-0.7904,-0.7932,-0.7944,-0.8031,-0.802,-0.8031,-0.8046,-0.8133,-0.8134,-0.8136,-0.8121,-0.8122,-0.8123,0,0,0,0,0,0,-0.7672,-0.7727,-0.7737,-0.7778,-0.7811,-0.7859,-0.7877,-0.7891,-0.7926,-0.7926,-0.7958,-0.7969,-0.8009,-0.8032,-0.8018,-0.8084,-0.8083,-0.8087,-0.8067,-0.8069,-0.8069,-0.8063,-0.8031,0,0,0,0,0,-0.7672,-0.7703,-0.775,-0.7781,-0.7798,-0.7835,-0.7855,-0.7874,-0.791,-0.7924,-0.7956,-0.7991,-0.8026,-0.8049,-0.8084,-0.8125,-0.8136,-0.8141,-0.8142,-0.8142,-0.8145,-0.817,-0.8173,-0.8142,-0.8142,-0.8142,0,0,-0.7671,-0.7705,-0.7723,-0.7778,-0.7806,-0.7839,-0.7846,-0.788,-0.7905,-0.7929,-0.7971,-0.7996,-0.8037,-0.8079,-0.81,-0.81,-0.8157,-0.8145,-0.8145,-0.8147,-0.8172,-0.8175,-0.8178,-0.8143,-0.8143,-0.8143,0,0,-0.7686,-0.7715,-0.7745,-0.7773,-0.7816,-0.7841,-0.7848,-0.7895,-0.7912,-0.7955,-0.7974,-0.8005,-0.8065,-0.8094,-0.8116,-0.8145,-0.8158,-0.8156,-0.816,-0.8184,-0.8186,-0.8189,-0.82,-0.8203,-0.8159,-0.8159,-0.8159,0,-0.768,-0.773,-0.7759,-0.7792,-0.7816,-0.784,-0.7872,-0.7898,-0.795,-0.7966,-0.7966,-0.8043,-0.8073,-0.8123,-0.813,-0.8147,-0.8157,-0.815,-0.8184,-0.8186,-0.8189,-0.82,-0.8204,-0.8158,-0.8159,-0.8159,-0.8159,0,-0.772,-0.7754,-0.7774,-0.7824,-0.785,-0.7882,-0.7917,-0.7941,-0.7957,-0.7982,-0.8026,-0.8063,-0.8106,-0.812,-0.8136,-0.8173,-0.8172,-0.8177,-0.8176,-0.8191,-0.8202,-0.8206,-0.8158,-0.8158,-0.8158,-0.8158,0,0,-0.7721,-0.7789,-0.7795,-0.7819,-0.7869,-0.7896,-0.793,-0.7973,-0.7993,-0.8029,-0.8059,-0.811,-0.8116,-0.8142,-0.8162,-0.8183,-0.8205,-0.8186,-0.8188,-0.8189,-0.8249,-0.8244,-0.8248,-0.8214,-0.8215,-0.8215,-0.8245,0,-0.7743,-0.7805,-0.7833,-0.7882,-0.7915,-0.7939,-0.7969,-0.8003,-0.8028,-0.806,-0.8088,-0.8124,-0.8129,-0.8145,-0.8167,-0.8197,-0.8217,-0.8196,-0.8242,-0.8244,-0.8231,-0.8254,-0.8249,-0.8275,-0.825,-0.825,-0.8251,0,-0.7777,-0.7813,-0.7865,-0.7913,-0.7928,-0.7954,-0.7996,-0.8027,-0.8067,-0.8084,-0.8113,-0.8133,-0.8171,-0.8168,-0.8221,-0.8206,-0.8227,-0.8245,-0.8247,-0.8252,-0.8248,-0.826,-0.8284,-0.8288,-0.8258,-0.8257,-0.8257,0,-0.7773,-0.7835,-0.7875,-0.7894,-0.7951,-0.7969,-0.7993,-0.8033,-0.8057,-0.8095,-0.8111,-0.8153,-0.8175,-0.8207,-0.8238,-0.8233,-0.8289,-0.8288,-0.8304,-0.8304,-0.8314,-0.8313,-0.8342,-0.8328,-0.8328,-0.8328,-0.8328,0,-0.7795,-0.7826,-0.7874,-0.7898,-0.7934,-0.7967,-0.8002,-0.8029,-0.8064,-0.8095,-0.8119,-0.8147,-0.8186,-0.822,-0.8244,-0.8285,-0.8295,-0.8311,-0.8317,-0.8308,-0.8306,-0.8322,-0.8321,-0.8329,-0.8329,-0.8329,-0.8328,0,-0.7796,-0.7829,-0.7874,-0.7925,-0.7938,-0.7963,-0.8006,-0.8031,-0.8058,-0.8097,-0.8108,-0.815,-0.8191,-0.8225,-0.8279,-0.8296,-0.8339,-0.8346,-0.8325,-0.8328,-0.8342,-0.8341,-0.8383,-0.839,-0.837,-0.8371,-0.8371,0,-0.7807,-0.7832,-0.7885,-0.7907,-0.7932,-0.7967,-0.7993,-0.8027,-0.8052,-0.8101,-0.8121,-0.8164,-0.82,-0.8264,-0.83,-0.8342,-0.8351,-0.8363,-0.8357,-0.8348,-0.8351,-0.8349,-0.8353,-0.8363,-0.8363,-0.8363,-0.8363,0,-0.7824,-0.784,-0.7875,-0.7917,-0.7947,-0.7982,-0.8017,-0.8034,-0.8075,-0.8103,-0.8145,-0.8173,-0.8229,-0.8272,-0.8318,-0.8344,-0.8361,-0.8365,-0.8371,-0.8362,-0.8349,-0.8357,-0.8326,-0.8363,-0.8363,-0.8363,-0.8363,-0.8363,-0.7831,-0.7855,-0.7896,-0.7936,-0.7966,-0.7999,-0.8025,-0.8056,-0.8092,-0.814,-0.8158,-0.8202,-0.8244,-0.8307,-0.8334,-0.8369,-0.8371,-0.838,-0.8382,-0.8383,-0.8382,-0.8344,-0.8378,-0.8378,-0.8378,-0.8378,-0.8378,0,-0.785,-0.7878,-0.7914,-0.7963,-0.7994,-0.8008,-0.8048,-0.8073,-0.8111,-0.8149,-0.8184,-0.8234,-0.8276,-0.8316,-0.836,-0.8381,-0.839,-0.8392,-0.839,-0.8396,-0.8378,-0.8368,-0.8384,-0.8384,-0.8384,-0.8384,-0.8384,-0.8384,-0.7863,-0.7904,-0.7925,-0.7982,-0.801,-0.8053,-0.8075,-0.8106,-0.8136,-0.8191,-0.8226,-0.8251,-0.8291,-0.8338,-0.8378,-0.8389,-0.8404,-0.8404,-0.8417,-0.8398,-0.8397,-0.8396,-0.8388,-0.8407,-0.8407,-0.8432,-0.8433,-0.8433]}]]